Wind_Speed
23 23 21 20 19 19 19 18 17 16 16 17 17 17 17 18 18 18 18 18 16 15 15 16 15 14 14 14 12 12 11 10 11 11 11 11 10 11 11 11 11 10 11 10
24 23 20 20 20 20 20 19 18 17 16 19 19 19 19 19 19 18 18 18 17 16 15 15 14 14 14 14 13 13 12 11 10 10 11 11 12 12 12 12 11 11 11 10
22 20 22 22 21 21 21 21 19 19 19 20 21 21 20 20 20 19 19 18 17 17 16 15 14 15 15 14 13 14 13 12 11 11 12 12 13 13 13 12 12 12 11 11
22 22 23 23 23 23 23 21 21 21 21 21 21 22 20 20 20 19 19 19 18 17 18 17 16 17 15 14 15 15 12 13 11 10 11 12 13 13 13 13 13 12 12 12
22 23 24 24 23 24 23 21 22 23 24 24 23 24 22 21 20 18 18 19 18 18 18 16 16 16 16 15 14 14 13 13 12 12 12 13 13 13 13 13 13 13 13 12
22 23 24 24 22 22 22 22 23 25 25 26 23 26 25 23 22 20 19 19 19 19 18 18 18 17 18 17 16 16 15 16 15 13 14 13 14 14 14 14 14 13 13 13
22 22 23 23 23 21 22 23 25 26 27 26 24 27 26 23 23 21 20 20 19 19 19 19 20 20 21 20 18 17 17 17 16 16 16 15 15 15 15 15 14 14 14 14
23 23 23 23 23 22 22 24 25 26 27 26 25 26 23 22 21 21 21 21 21 20 21 21 22 22 22 21 20 20 19 19 18 18 18 17 17 16 16 15 15 15 15 15
24 23 23 23 23 24 24 26 26 27 27 27 27 27 24 20 19 21 23 23 24 23 22 23 24 24 24 23 22 21 20 19 19 19 19 18 18 17 16 16 16 16 16 16
24 24 23 23 24 25 25 25 27 28 28 29 30 29 26 22 21 22 23 23 23 24 24 24 24 24 24 24 24 23 21 21 21 21 20 20 19 17 17 17 17 18 18 18
25 25 23 24 25 25 26 26 27 28 29 29 31 30 28 25 24 24 24 24 23 24 24 25 24 24 25 25 24 22 22 22 22 22 21 20 20 19 19 18 18 18 19 19
24 25 24 25 25 26 27 27 27 28 28 29 30 29 28 27 25 25 25 25 25 24 25 25 26 26 25 24 24 23 23 23 23 23 22 22 22 21 20 20 20 20 20 20
24 25 25 24 26 28 29 28 27 28 29 28 28 28 28 28 27 26 26 26 27 26 25 26 26 26 26 25 24 24 24 24 23 23 23 23 23 23 21 21 21 21 21 22
25 25 26 25 26 28 29 29 29 29 30 29 29 29 28 29 28 28 27 27 27 27 27 26 27 27 27 26 26 26 25 25 25 24 24 24 24 24 23 23 23 23 23 23
25 26 26 25 26 28 29 29 29 29 29 30 29 29 29 28 29 29 28 27 27 27 27 26 26 27 27 27 27 26 26 27 26 26 26 26 25 24 24 24 25 25 25 25
23 24 25 25 26 28 29 29 30 29 29 29 30 30 28 28 28 28 27 28 27 26 27 27 27 27 28 28 28 27 28 28 27 27 27 27 27 26 25 25 25 26 26 26
23 24 25 25 27 28 28 28 30 30 29 29 28 28 28 28 28 27 28 28 29 29 28 28 28 28 29 29 29 29 27 26 27 27 28 28 27 27 26 26 26 26 27 27
23 24 25 25 25 28 28 28 29 30 30 30 30 29 29 30 30 29 29 29 30 29 29 29 29 29 29 29 29 28 27 27 27 27 27 28 29 28 27 27 27 27 27 26
22 22 24 24 25 25 27 28 29 29 30 31 31 31 29 29 29 30 29 29 29 29 30 29 30 29 29 29 28 27 27 26 26 26 27 28 29 29 28 28 27 27 27 27
22 22 23 24 24 25 25 27 29 30 30 30 31 31 30 29 28 29 28 28 28 29 29 29 29 28 28 27 27 26 25 25 25 26 26 27 28 29 29 28 27 27 26 26
22 22 22 22 24 25 24 25 27 29 30 29 31 31 31 31 29 29 29 28 28 28 29 30 28 28 28 27 27 26 25 25 26 26 26 27 27 28 28 28 27 27 26 26
20 21 21 22 24 23 23 25 27 27 28 29 30 32 32 32 32 31 30 29 29 29 29 29 28 28 28 27 27 26 26 26 27 27 27 27 27 27 27 27 27 27 26 27
18 19 21 23 23 22 24 25 27 28 28 29 30 31 33 34 34 32 30 28 29 29 29 28 28 28 28 27 27 27 26 27 27 27 27 27 26 26 26 26 26 26 26 27
18 19 21 23 23 23 24 25 27 28 28 29 29 31 31 32 31 31 30 29 28 28 27 27 27 27 28 27 27 27 27 27 27 27 26 26 26 26 25 25 25 25 25 26
19 21 21 21 22 23 24 25 26 27 27 28 29 29 28 29 29 29 29 29 28 27 26 26 27 27 27 26 26 27 27 27 26 27 26 26 26 25 25 25 25 25 24 24
19 20 20 21 22 24 23 23 24 25 25 25 26 27 27 28 28 27 28 28 28 28 27 27 27 28 28 28 28 27 26 26 26 26 26 26 26 25 25 25 24 24 24 24
Wind_Direction
239 240 242 242 243 244 245 247 247 243 241 244 246 246 244 249 254 261 267 267 267 273 278 280 285 290 289 289 287 288 293 298 299 301 304 305 304 307 308 307 307 300 292 285
240 240 239 237 238 241 243 245 244 243 243 246 245 244 245 249 254 259 262 264 264 271 275 278 282 286 290 292 292 294 292 291 290 293 296 297 299 303 306 306 302 300 297 287
244 239 235 234 234 237 240 243 243 243 242 248 249 247 248 251 253 259 261 262 264 266 272 276 282 285 287 291 292 295 287 283 288 289 290 292 294 298 299 300 296 294 295 287
240 235 234 234 233 236 238 240 242 240 242 244 249 250 246 250 255 257 257 262 265 270 267 268 275 283 286 289 287 290 286 288 288 289 292 294 293 292 295 295 293 290 290 285
239 237 236 237 235 235 237 237 239 239 242 243 245 251 247 247 252 254 255 259 265 268 269 272 279 281 285 284 283 284 281 288 289 290 293 294 293 295 294 291 288 286 284 280
240 241 241 241 239 238 239 238 238 240 240 239 240 249 248 249 252 255 254 257 264 268 270 275 279 278 283 281 280 280 280 283 284 288 292 291 290 294 295 290 285 282 281 276
241 241 241 240 238 237 238 240 239 238 238 237 236 244 249 252 255 255 256 256 261 263 271 276 277 278 281 280 278 278 280 282 284 286 289 286 287 288 289 286 283 282 280 278
242 240 240 242 243 242 239 241 241 242 242 237 236 244 250 255 258 259 259 258 261 263 268 272 273 274 277 277 277 278 279 281 283 284 285 285 284 284 283 282 282 279 277 276
245 242 239 240 239 240 239 239 241 245 245 242 240 244 248 254 256 258 259 258 259 262 263 267 270 272 273 273 275 277 278 280 282 284 284 284 282 280 281 282 282 277 275 276
248 246 240 240 238 238 240 238 238 240 241 243 242 244 248 253 256 256 257 260 260 260 262 264 269 273 274 272 274 273 277 278 279 281 282 282 284 282 279 279 279 278 277 276
246 247 242 240 239 240 238 235 237 241 241 244 246 247 250 253 254 255 255 257 259 258 259 263 267 268 270 272 273 275 276 277 277 279 280 281 282 282 279 276 277 277 277 276
245 248 245 241 240 240 238 236 237 240 243 245 249 250 251 252 252 254 256 257 259 260 260 263 265 267 269 271 274 273 273 275 276 277 278 278 279 280 278 274 275 277 277 277
244 245 246 240 235 235 236 235 238 240 244 249 251 252 253 254 253 254 255 255 256 260 261 262 264 267 271 272 275 272 271 273 274 275 276 276 278 279 276 275 275 276 278 279
245 244 245 242 237 235 236 236 238 240 243 248 250 250 252 253 255 255 257 261 259 261 263 263 264 268 272 274 276 273 270 272 274 275 275 275 277 276 274 274 275 276 277 278
248 247 243 239 237 236 237 238 239 240 243 245 249 251 252 254 256 258 259 263 264 265 266 268 270 271 272 275 277 275 272 271 274 274 273 274 274 274 274 273 274 275 276 276
249 249 243 239 237 236 237 239 241 242 244 245 249 251 253 255 256 257 260 265 265 265 267 269 271 272 274 277 278 277 274 272 273 273 273 273 273 273 273 272 272 273 274 275
248 246 245 241 239 241 241 241 243 245 248 249 250 251 252 256 256 260 263 263 265 268 267 268 269 271 273 275 277 275 274 274 273 273 273 272 273 271 271 272 273 273 274 275
250 247 245 243 241 242 242 243 244 246 248 251 252 252 254 255 257 259 261 261 264 266 266 266 267 270 273 275 275 272 272 275 274 273 273 272 272 273 271 272 273 274 273 273
252 250 249 247 245 245 243 247 248 249 251 251 253 255 256 255 255 255 256 259 262 261 264 266 267 269 271 273 273 272 273 274 273 273 273 273 272 273 273 273 272 273 273 273
252 252 251 248 247 247 246 249 250 251 254 253 253 255 257 255 256 256 257 259 262 264 263 265 266 267 269 270 271 272 272 272 272 273 273 274 274 275 275 273 271 272 273 273
256 255 255 254 252 253 252 251 252 255 257 257 256 257 259 259 259 258 258 260 261 262 264 264 265 267 268 269 270 271 272 272 273 273 275 276 276 276 276 273 271 271 272 272
260 261 261 260 259 259 257 253 254 258 260 259 259 259 260 261 260 258 257 257 258 260 263 265 265 266 267 269 270 271 271 271 272 273 274 275 276 276 275 273 271 270 270 271
261 263 264 262 261 260 260 258 257 259 262 262 260 261 262 263 262 260 258 257 257 261 265 266 266 266 266 268 270 271 272 271 271 272 273 274 275 274 273 273 273 272 271 272
267 268 266 265 265 263 262 262 262 261 263 264 264 264 262 260 260 259 259 257 258 261 265 266 268 268 267 267 268 269 269 269 270 271 274 274 274 273 272 273 274 274 272 271
269 272 268 266 265 265 266 264 264 263 266 268 268 266 263 262 261 260 259 258 259 260 262 263 265 267 267 266 267 269 268 268 269 272 274 274 274 274 272 272 272 272 273 272
271 274 272 270 268 269 269 267 266 265 265 266 265 264 263 262 261 260 260 260 258 259 262 262 262 264 267 267 268 267 266 268 270 272 273 273 274 273 272 271 271 272 272 272
Height
5847 5849 5851 5854 5855 5857 5857 5859 5860 5862 5862 5862 5863 5865 5867 5868 5868 5868 5869 5870 5871 5871 5871 5871 5871 5871 5870 5869 5869 5868 5867 5866 5865 5864 5863 5862 5861 5860 5859 5858 5857 5856 5855 5855
5842 5843 5847 5848 5849 5850 5852 5853 5855 5857 5857 5857 5858 5860 5862 5863 5863 5864 5865 5866 5867 5867 5867 5867 5867 5867 5867 5866 5866 5866 5865 5864 5862 5861 5861 5860 5858 5857 5856 5855 5854 5853 5852 5851
5835 5839 5840 5841 5843 5844 5846 5848 5850 5852 5852 5852 5853 5854 5856 5857 5858 5859 5860 5861 5863 5863 5863 5863 5863 5863 5863 5862 5862 5862 5861 5860 5859 5858 5857 5857 5855 5854 5854 5853 5851 5850 5849 5848
5829 5832 5833 5834 5836 5839 5840 5843 5845 5846 5847 5847 5849 5849 5851 5852 5853 5854 5855 5857 5858 5858 5859 5859 5860 5860 5859 5859 5859 5858 5857 5856 5855 5854 5854 5853 5852 5851 5850 5849 5848 5847 5846 5845
5824 5826 5827 5828 5831 5833 5835 5837 5839 5841 5842 5843 5843 5844 5846 5847 5848 5849 5851 5851 5852 5853 5854 5855 5856 5856 5856 5855 5854 5854 5854 5853 5852 5851 5850 5849 5848 5847 5846 5845 5844 5843 5842 5841
5817 5819 5820 5822 5825 5827 5829 5831 5833 5834 5835 5836 5839 5839 5839 5841 5843 5845 5846 5846 5847 5849 5849 5850 5852 5852 5852 5851 5851 5850 5850 5849 5848 5847 5846 5846 5845 5843 5842 5841 5840 5839 5838 5838
5810 5812 5814 5816 5817 5820 5822 5825 5826 5827 5828 5830 5834 5833 5834 5836 5838 5840 5841 5842 5843 5844 5844 5845 5846 5846 5846 5846 5846 5846 5846 5845 5843 5842 5842 5841 5840 5839 5838 5837 5836 5835 5834 5834
5803 5806 5808 5809 5812 5814 5816 5818 5820 5821 5822 5825 5827 5827 5830 5831 5833 5834 5835 5837 5838 5839 5840 5840 5841 5841 5841 5841 5841 5841 5840 5840 5839 5838 5837 5836 5835 5834 5833 5832 5832 5831 5830 5829
5797 5800 5803 5804 5806 5808 5809 5811 5814 5816 5817 5819 5820 5822 5824 5826 5827 5828 5829 5831 5832 5833 5833 5834 5835 5835 5835 5835 5835 5835 5835 5834 5833 5833 5832 5831 5830 5829 5828 5827 5827 5826 5825 5825
5790 5793 5796 5798 5800 5801 5803 5805 5808 5809 5810 5812 5814 5816 5819 5820 5821 5822 5823 5824 5825 5826 5827 5828 5828 5828 5829 5829 5829 5829 5829 5828 5827 5827 5826 5825 5824 5823 5822 5822 5822 5821 5820 5820
5784 5787 5789 5791 5792 5794 5797 5799 5800 5802 5804 5806 5808 5812 5813 5815 5815 5816 5817 5818 5819 5819 5820 5821 5821 5822 5822 5822 5822 5822 5822 5821 5821 5821 5820 5820 5819 5818 5817 5816 5816 5816 5815 5815
5778 5780 5782 5784 5786 5788 5789 5791 5793 5796 5798 5799 5801 5806 5806 5808 5808 5809 5810 5811 5811 5812 5813 5815 5815 5815 5815 5816 5816 5815 5815 5815 5815 5814 5813 5813 5813 5811 5811 5811 5810 5810 5809 5809
5771 5773 5775 5778 5781 5781 5782 5784 5786 5789 5791 5792 5794 5799 5799 5800 5801 5802 5803 5803 5804 5805 5806 5807 5808 5808 5808 5808 5808 5808 5808 5808 5808 5807 5807 5806 5806 5805 5805 5804 5804 5804 5803 5803
5764 5765 5768 5771 5772 5773 5775 5778 5780 5782 5784 5786 5788 5790 5792 5792 5793 5794 5795 5796 5797 5798 5799 5799 5800 5800 5801 5801 5801 5801 5800 5800 5800 5800 5800 5799 5799 5798 5798 5797 5797 5797 5796 5795
5757 5758 5760 5762 5764 5766 5768 5771 5773 5775 5777 5779 5781 5783 5785 5786 5787 5788 5789 5790 5791 5791 5791 5792 5793 5793 5793 5793 5794 5793 5793 5793 5792 5792 5792 5792 5791 5791 5790 5790 5789 5789 5788 5788
5750 5751 5753 5755 5757 5759 5761 5764 5766 5768 5770 5772 5774 5776 5778 5779 5780 5781 5781 5782 5783 5783 5784 5785 5785 5786 5786 5786 5785 5785 5785 5785 5784 5784 5784 5783 5783 5782 5782 5782 5781 5781 5780 5780
5743 5745 5746 5749 5751 5752 5755 5758 5759 5761 5762 5764 5766 5769 5770 5772 5772 5773 5774 5775 5775 5776 5776 5776 5777 5777 5778 5778 5777 5778 5777 5777 5776 5775 5775 5775 5774 5774 5774 5774 5773 5772 5772 5771
5737 5739 5740 5742 5745 5747 5751 5751 5752 5753 5755 5756 5758 5760 5762 5764 5765 5766 5767 5768 5768 5768 5769 5769 5769 5769 5769 5769 5769 5769 5769 5769 5768 5767 5767 5766 5766 5765 5765 5765 5765 5764 5763 5763
5731 5732 5734 5735 5737 5739 5743 5743 5745 5746 5747 5749 5750 5752 5753 5754 5756 5758 5759 5759 5760 5760 5761 5761 5761 5761 5761 5762 5761 5761 5761 5761 5760 5759 5758 5758 5757 5757 5757 5756 5756 5755 5755 5754
5726 5726 5728 5728 5730 5732 5736 5736 5737 5739 5739 5741 5742 5743 5745 5746 5748 5750 5750 5750 5751 5752 5752 5753 5753 5753 5753 5753 5753 5753 5753 5752 5752 5751 5750 5750 5749 5748 5748 5747 5747 5746 5746 5745
5720 5720 5721 5722 5723 5724 5728 5728 5730 5732 5733 5733 5733 5734 5736 5737 5739 5740 5741 5742 5743 5743 5744 5744 5744 5744 5744 5745 5745 5745 5744 5744 5744 5743 5742 5742 5741 5740 5739 5739 5738 5738 5737 5737
5714 5715 5715 5715 5716 5720 5720 5720 5722 5723 5723 5724 5725 5726 5727 5728 5730 5730 5731 5732 5734 5735 5735 5735 5735 5736 5736 5736 5736 5736 5736 5736 5735 5735 5734 5733 5732 5731 5731 5730 5730 5729 5729 5728
5708 5709 5708 5709 5711 5711 5711 5712 5713 5714 5715 5716 5716 5717 5718 5719 5720 5721 5723 5723 5724 5726 5727 5727 5727 5727 5728 5728 5728 5728 5727 5727 5727 5726 5726 5725 5724 5723 5723 5722 5722 5721 5721 5720
5703 5702 5702 5702 5702 5703 5703 5704 5704 5705 5706 5707 5707 5707 5707 5709 5710 5712 5713 5714 5715 5716 5717 5718 5718 5718 5719 5719 5719 5719 5719 5719 5718 5718 5717 5717 5716 5715 5714 5714 5713 5713 5713 5712
5696 5696 5695 5695 5695 5695 5695 5696 5696 5697 5697 5698 5698 5698 5698 5699 5700 5701 5703 5705 5706 5707 5708 5709 5709 5710 5710 5710 5710 5710 5710 5710 5710 5710 5709 5709 5708 5707 5706 5706 5706 5705 5705 5705
5690 5690 5689 5689 5688 5687 5687 5688 5688 5688 5689 5689 5689 5689 5689 5690 5691 5692 5694 5696 5697 5698 5699 5700 5700 5701 5701 5701 5702 5702 5702 5702 5702 5701 5701 5700 5700 5699 5698 5698 5698 5697 5698 5697